Showing default

BEIDOU 3 M26, 58655

Orbit data source: Space-Track

BEIDOU 3 M26, 58655 is a payload satellite owned by CNSA (CN) in MEO that was launched on Tue, 26 Dec 2023 UTC via a CHANG ZHENG 3B/YZ-1 launch vehicle from the Xichang Space Center, China (XSC). Payload-class satellites include a variety of spacecraft equipped with specific instruments for various scientific and technological missions. These include communications satellites like Starlink; space stations such as the ISS; scientific satellites like the Hubble; Earth observation satellites from companies like Planet Labs, Umbra, and HawkEye 360; GPS; miniature CubeSats for education and research; and military/defense satellites.

Loading next visibility...
Identifier
58655, 2023-207B
Orbit
MEO
Country
Flag of CNCN / PRC
Related business
Manufacturer
CAST
Mission
Operational Defense Navigation
Bus & Motor
BD-3M, Unknown motor
Mass
1,014 kg wet, ~850 kg dry
Launch date (UTC)
2023-12-26 (2 years ago)
Launch vehicle
CHANG ZHENG 3B/YZ-1
Launch site
Xichang Space Center, China (XSC)
Object type
Payload
Rocket body
Debris
Shape & HBR
Box + 2 Pan, 5.0 m
Radar Cross Section
8.984 m², Large (>1 m²)

Expand to show TLE details & history
Last TLE update: 2 days ago

TLE from 2 days ago
0 BEIDOU 3 M26
1 58655U 23207B   26171.85548296 -.00000079  00000-0  00000+0 0  9993
2 58655  55.7582  62.1656 0002952 321.4891  38.5283  1.86229739 16895
Epoch: 2026-06-20T20:31Z
TLE epoch observation values (Epoch: 2026-06-20T20:31:53.727Z)
Latitude
-0.00002°
Longitude
-154.85687°
Altitude
21,522.036 km
Speed
3.78 km/s
True Right ascension
04h 08m 43s
True Declination
0° 00' 00"
Sunlit
Object was in daylight at epoch
Visualization orbit readout
Latitude
Unknown
Longitude
Unknown
Altitude
Unknown
Speed
Unknown
Apparent Right ascension
Unknown
Apparent Declination
Unknown
Sunlit
N/A
Visualization observer readout
Local Sidereal Time
21:26:35
Azimuth
Unknown
Elevation
Unknown
Doppler factor
Unknown
Orbital elements
Apogee altitude
21,536.393 km
Perigee altitude
21,519.917 km
Semi-major axis
27,906.292 km
Eccentricity
0.0003
Inclination
55.7582°
RAAN
62.1656°
Arg. of periapsis
321.4891°
True anomaly
38.54938°
Mean anomaly
38.5283°
Eccentric anomaly
38.53884°
Mean motion
0.46558 °/min
Orbital period
773.24 mins
BSTAR
0
Loading maneuver chart data...
Computing Atmospheric mass density...
Loading historical data...
Loading historical data...
Loading historical data...
Loading historical data...
Loading historical data...
Loading historical data...
Loading historical data...
Other satellites on launch #207 in the year 2023 (2023-12-26 UTC)

Documentation

Showing up to 5 results
|